FENGYUN 1C DEB, 38799

Orbit data source: Space-Track

FENGYUN 1C DEB, 38799 is space debris in SSO originally from a launch on Mon, 10 May 1999 UTC launched from the Taiyaun Space Center, China (TSC). Fengyun 1C debris stems from the Chinese weather satellite Fengyun-1C, which was intentionally destroyed by a Chinese anti-satellite missile in 2007. This event dramatically increased the amount of space debris, with thousands of trackable fragments posing hazards to satellites and human spaceflight. The Fengyun 1C debris cloud has become a focal point in discussions about space sustainability and the need for international regulations to prevent the creation of new debris.

Loading next visibility...
Identifier
38799, 1999-025EUP
Orbit
SSO
Country
Flag of CNCN / PRC
Related business
Manufacturer
Unknown
Mission
Spacecraft
Bus & Motor
Unknown
Mass
Unknown
Launch date (UTC)
1999-05-10 (27 years ago)
Launch vehicle
Unknown
Launch site
Taiyaun Space Center, China (TSC)
Object type
Payload
Rocket body
Debris
Shape & HBR
Unknown shape, 0.1 m
Radar Cross Section
Small (<0.1 m²)

Expand to show TLE details & history
Last TLE update: 1 week ago

TLE from 1 week ago
0 FENGYUN 1C DEB
1 38799U 99025EUP 26247.50051080  .00001542  00000-0  34353-3 0  9994
2 38799  98.3857 327.0904 0158192 258.2663 100.0746 14.50980737678903
Epoch: 2026-09-04T12:00Z
TLE epoch observation values (Epoch: 2026-09-04T12:00:44.133Z)
Latitude
-0.00003°
Longitude
163.28308°
Altitude
746.783 km
Speed
7.47 km/s
True Right ascension
21h 48m 21s
True Declination
0° 00' 00"
Sunlit
Object was in full shadow at epoch
Visualization orbit readout
Latitude
Unknown
Longitude
Unknown
Altitude
Unknown
Speed
Unknown
Apparent Right ascension
Unknown
Apparent Declination
Unknown
Sunlit
N/A
Visualization observer readout
Local Sidereal Time
15:22:45
Azimuth
Unknown
Elevation
Unknown
Doppler factor
Unknown
Orbital elements
Apogee altitude
831.828 km
Perigee altitude
607.268 km
Semi-major axis
7,097.685 km
Eccentricity
0.01582
Inclination
98.3857°
RAAN
327.0904°
Arg. of periapsis
258.2663°
True anomaly
101.85296°
Mean anomaly
100.0746°
Eccentric anomaly
100.96443°
Mean motion
3.62968 °/min
Orbital period
99.18 mins
BSTAR
0.00034353
Loading maneuver chart data...
Computing Atmospheric mass density...
Loading historical data...
Loading historical data...
Loading historical data...
Loading historical data...
Loading historical data...
Loading historical data...
Loading historical data...

Documentation

Showing up to 5 results
|